When you browse on this site, cookies collect data to enhance your experience and personalize the content and advertising you see.
Visit our Privacy Policy to learn more. By continuing to use the site, you agree to this use of cookies and data.
  • In Germany
  • List of Countries
  • For 7 days
  • Water Temperature
  • Satellite Maps
  • Weather Map
  • Weather Widgets
  • user-avatar
    Login

    Hourly Weather Rechytsa

    Today, 16 November, Friday

    Time Temperature Precipitation Wind Pressure Humidity
    00:00 -4°C° 0 mm 2 mps 766 mmHg 89%
    01:00 -4°C° 0 mm 2 mps 766 mmHg 88%
    02:00 -5°C° 0 mm 2 mps 767 mmHg 85%
    03:00 -5°C° 0 mm 2 mps 767 mmHg 84%
    04:00 -5°C° 0 mm 2 mps 767 mmHg 82%
    05:00 -5°C° 0 mm 2 mps 767 mmHg 81%
    06:00 -5°C° 0 mm 2 mps 768 mmHg 79%
    07:00 -6°C° 0 mm 3 mps 768 mmHg 77%
    08:00 -6°C° 0 mm 3 mps 768 mmHg 75%
    09:00 -5°C° 0 mm 3 mps 768 mmHg 70%
    10:00 -4°C° 0 mm 3 mps 768 mmHg 65%
    11:00 -1°C° 0 mm 3 mps 769 mmHg 60%
    12:00 -1°C° 0 mm 3 mps 769 mmHg 60%
    13:00 0°C° 0 mm 3 mps 769 mmHg 61%
    14:00 0°C° 0 mm 3 mps 768 mmHg 61%
    15:00 -1°C° 0 mm 3 mps 769 mmHg 65%
    16:00 -2°C° 0 mm 3 mps 769 mmHg 70%
    17:00 -5°C° 0 mm 3 mps 769 mmHg 74%
    18:00 -5°C° 0 mm 3 mps 769 mmHg 73%
    19:00 -5°C° 0 mm 3 mps 769 mmHg 72%
    20:00 -6°C° 0 mm 3 mps 769 mmHg 71%
    21:00 -6°C° 0 mm 3 mps 769 mmHg 70%
    22:00 -6°C° 0 mm 3 mps 769 mmHg 68%
    23:00 -6°C° 0 mm 3 mps 769 mmHg 67%

    Tomorrow, 17 November, Saturday

    Time Temperature Precipitation Wind Pressure Humidity
    00:00 -6°C° 0 mm 3 mps 769 mmHg 66%
    01:00 -6°C° 0 mm 2 mps 769 mmHg 65%
    02:00 -6°C° 0 mm 2 mps 769 mmHg 64%
    03:00 -6°C° 0 mm 2 mps 769 mmHg 63%
    04:00 -6°C° 0 mm 2 mps 769 mmHg 62%
    05:00 -6°C° 0 mm 2 mps 769 mmHg 61%
    06:00 -6°C° 0 mm 2 mps 769 mmHg 60%
    07:00 -6°C° 0 mm 2 mps 769 mmHg 59%
    08:00 -6°C° 0 mm 2 mps 769 mmHg 59%
    09:00 -4°C° 0 mm 2 mps 769 mmHg 55%
    10:00 -3°C° 0 mm 2 mps 769 mmHg 51%
    11:00 -1°C° 0 mm 2 mps 769 mmHg 48%
    12:00 -1°C° 0 mm 2 mps 768 mmHg 50%
    13:00 -1°C° 0 mm 2 mps 768 mmHg 51%
    14:00 +2°C° 0 mm 1 mps 767 mmHg 53%
    15:00 +1°C° 0 mm 1 mps 767 mmHg 55%
    16:00 -1°C° 0 mm 1 mps 766 mmHg 58%
    17:00 -2°C° 0 mm 1 mps 766 mmHg 60%
    18:00 -2°C° 0 mm 1 mps 765 mmHg 59%
    19:00 -3°C° 0 mm 1 mps 765 mmHg 59%
    20:00 -3°C° 0 mm 1 mps 765 mmHg 59%
    21:00 -3°C° 0 mm 1 mps 764 mmHg 58%
    22:00 -3°C° 0 mm 1 mps 764 mmHg 56%
    23:00 -2°C° 0 mm 1 mps 763 mmHg 55%

    Day after tomorrow, 18 November, Sunday

    Time Temperature Precipitation Wind Pressure Humidity
    00:00 -5°C° 0 mm 2 mps 763 mmHg 56%
    01:00 -5°C° 0 mm 2 mps 762 mmHg 56%
    02:00 -5°C° 0 mm 2 mps 761 mmHg 57%
    03:00 -5°C° 0 mm 3 mps 760 mmHg 56%
    04:00 -5°C° 0 mm 3 mps 759 mmHg 56%
    05:00 -5°C° 0 mm 3 mps 758 mmHg 56%
    06:00 -4°C° 0 mm 3 mps 758 mmHg 59%
    07:00 -4°C° 0 mm 3 mps 757 mmHg 62%
    08:00 -4°C° 0 mm 3 mps 757 mmHg 64%
    09:00 -2°C° 0.1 mm 3 mps 756 mmHg 71%
    10:00 -2°C° 0.1 mm 3 mps 756 mmHg 77%
    11:00 -1°C° 0.1 mm 3 mps 755 mmHg 83%
    12:00 -1°C° 0.1 mm 3 mps 755 mmHg 84%
    13:00 -1°C° 0.1 mm 3 mps 754 mmHg 86%
    14:00 0°C° 0.1 mm 3 mps 754 mmHg 87%
    15:00 -1°C° 0 mm 2 mps 754 mmHg 90%
    16:00 -1°C° 0 mm 2 mps 753 mmHg 92%
    17:00 -1°C° 0 mm 2 mps 753 mmHg 95%
    18:00 -1°C° 0 mm 2 mps 753 mmHg 95%
    19:00 +1°C° 0 mm 1 mps 752 mmHg 96%
    20:00 +1°C° 0 mm 1 mps 752 mmHg 96%
    21:00 +1°C° 0.1 mm 1 mps 752 mmHg 96%
    22:00 +1°C° 0.1 mm 1 mps 752 mmHg 97%
    23:00 +1°C° 0.1 mm 1 mps 752 mmHg 97%

    19 November, Monday

    Time Temperature Precipitation Wind Pressure Humidity
    00:00 +1°C° 0.1 mm 1 mps 752 mmHg 97%
    01:00 0°C° 0.1 mm 1 mps 752 mmHg 97%
    02:00 0°C° 0.1 mm 1 mps 752 mmHg 97%
    03:00 0°C° 0 mm 1 mps 752 mmHg 97%
    04:00 0°C° 0 mm 1 mps 752 mmHg 97%
    05:00 0°C° 0 mm 1 mps 752 mmHg 97%
    06:00 0°C° 0 mm 1 mps 753 mmHg 96%
    07:00 0°C° 0 mm 1 mps 753 mmHg 96%
    08:00 -2°C° 0 mm 2 mps 753 mmHg 95%
    09:00 -2°C° 0 mm 2 mps 754 mmHg 94%
    10:00 -1°C° 0 mm 2 mps 754 mmHg 92%
    11:00 -1°C° 0 mm 2 mps 754 mmHg 90%
    12:00 -1°C° 0 mm 2 mps 754 mmHg 89%
    13:00 -1°C° 0 mm 2 mps 755 mmHg 89%
    14:00 +1°C° 0 mm 2 mps 755 mmHg 88%
    15:00 -1°C° 0.1 mm 2 mps 755 mmHg 89%
    16:00 -1°C° 0.1 mm 2 mps 755 mmHg 91%
    17:00 -2°C° 0.1 mm 2 mps 755 mmHg 92%
    18:00 -3°C° 0 mm 2 mps 756 mmHg 91%
    19:00 -3°C° 0 mm 2 mps 756 mmHg 91%
    20:00 -5°C° 0 mm 3 mps 756 mmHg 90%
    21:00 -5°C° 0 mm 3 mps 756 mmHg 88%
    22:00 -5°C° 0 mm 3 mps 757 mmHg 86%
    23:00 -5°C° 0 mm 3 mps 757 mmHg 83%

    20 November, Tuesday

    Time Temperature Precipitation Wind Pressure Humidity
    00:00 -5°C° 0 mm 3 mps 757 mmHg 83%
    01:00 -5°C° 0 mm 3 mps 757 mmHg 83%
    02:00 -5°C° 0 mm 3 mps 757 mmHg 82%
    03:00 -5°C° 0 mm 3 mps 757 mmHg 85%
    04:00 -5°C° 0 mm 3 mps 757 mmHg 87%
    05:00 -4°C° 0 mm 3 mps 757 mmHg 89%
    06:00 -4°C° 0.1 mm 4 mps 757 mmHg 90%
    07:00 -3°C° 0.1 mm 4 mps 756 mmHg 91%
    08:00 -3°C° 0.1 mm 4 mps 756 mmHg 92%
    09:00 -2°C° 0.1 mm 4 mps 756 mmHg 91%
    10:00 -2°C° 0.1 mm 4 mps 756 mmHg 90%
    11:00 -1°C° 0.1 mm 4 mps 756 mmHg 89%
    12:00 -1°C° 0.1 mm 4 mps 756 mmHg 87%
    13:00 -1°C° 0.1 mm 4 mps 756 mmHg 86%
    14:00 -1°C° 0.1 mm 4 mps 755 mmHg 85%
    15:00 -2°C° 0.1 mm 4 mps 755 mmHg 87%
    16:00 -1°C° 0.1 mm 3 mps 755 mmHg 89%
    17:00 -2°C° 0.1 mm 3 mps 755 mmHg 91%
    18:00 -2°C° 0.1 mm 3 mps 755 mmHg 92%
    19:00 -2°C° 0.1 mm 3 mps 755 mmHg 92%
    20:00 -2°C° 0.1 mm 3 mps 755 mmHg 93%
    21:00 -2°C° 0 mm 2 mps 755 mmHg 93%
    22:00 -2°C° 0 mm 2 mps 755 mmHg 93%
    23:00 -2°C° 0 mm 2 mps 755 mmHg 94%

    21 November, Wednesday

    Time Temperature Precipitation Wind Pressure Humidity
    00:00 -2°C° 0 mm 2 mps 755 mmHg 94%
    01:00 -2°C° 0 mm 2 mps 755 mmHg 94%
    02:00 -2°C° 0 mm 2 mps 755 mmHg 94%
    03:00 -2°C° 0 mm 3 mps 754 mmHg 94%
    04:00 -1°C° 0 mm 3 mps 754 mmHg 94%
    05:00 -1°C° 0 mm 3 mps 754 mmHg 93%
    06:00 -2°C° 0 mm 4 mps 754 mmHg 93%
    07:00 -2°C° 0 mm 4 mps 753 mmHg 92%
    08:00 -2°C° 0 mm 4 mps 753 mmHg 91%
    09:00 -2°C° 0 mm 5 mps 753 mmHg 89%
    10:00 -2°C° 0 mm 5 mps 753 mmHg 88%
    11:00 -1°C° 0 mm 5 mps 752 mmHg 86%
    12:00 -1°C° 0 mm 5 mps 752 mmHg 86%
    13:00 -1°C° 0 mm 5 mps 751 mmHg 86%
    14:00 -2°C° 0 mm 6 mps 751 mmHg 86%
    15:00 -3°C° 0.1 mm 6 mps 750 mmHg 87%
    16:00 -3°C° 0.1 mm 6 mps 750 mmHg 87%
    17:00 -3°C° 0.1 mm 7 mps 749 mmHg 88%
    18:00 -3°C° 0.2 mm 7 mps 749 mmHg 88%
    19:00 -3°C° 0.2 mm 7 mps 749 mmHg 88%
    20:00 -3°C° 0.2 mm 7 mps 748 mmHg 88%
    21:00 -3°C° 0.5 mm 7 mps 748 mmHg 88%
    22:00 -3°C° 0.5 mm 7 mps 748 mmHg 89%
    23:00 -3°C° 0.5 mm 7 mps 748 mmHg 89%
    Show more